This demonstration page uses our WeatherBlox Daily Observations layout. Learn more.

Left ArrowRight Arrow

Hourly Observations for April 8, 2018

Temp ( °F °C ) Dew Point ( °F °C ) Humidity (%) Winds ( mph kmh ) Pressure ( in mb ) Visibility ( mi km ) Precip ( " mm )
12:53 am 00:53 Clear 31 -0.6 20 -6.7 64 64 NW 5 7 30.08 1019 10 16 0.00 0.00
1:53 am 01:53 Clear 30 -1.1 20 -6.7 66 66 NW 3 6 30.08 1019 10 16 0.00 0.00
2:53 am 02:53 Clear 29 -1.7 20 -6.7 69 69 NNW 6 9 30.08 1019 10 16 0.00 0.00
3:53 am 03:53 Clear 28 -2.2 19 -7.2 69 69 NNW 5 7 30.08 1019 10 16 0.00 0.00
4:53 am 04:53 Clear 28 -2.2 16 -8.9 60 60 Calm 30.09 1019 10 16 0.00 0.00
5:53 am 05:53 Clear 24 -4.4 17 -8.3 75 75 NNW 5 7 30.10 1019 10 16 0.00 0.00
6:53 am 06:53 Clear 24 -4.4 17 -8.3 75 75 Calm 30.11 1020 10 16 0.00 0.00
7:53 am 07:53 Sunny 24 -4.4 18 -7.8 77 77 Calm 30.13 1020 10 16 0.00 0.00
8:53 am 08:53 Sunny 30 -1.1 16 -8.9 56 56 NNE 6 9 30.14 1021 10 16 0.00 0.00
9:53 am 09:53 Sunny 32 0 14 -10 47 47 N 7 11 30.14 1021 10 16 0.00 0.00
10:53 am 10:53 Sunny 34 1.1 13 -10.6 42 42 VRB 5 7 30.16 1021 10 16 0.00 0.00
11:53 am 11:53 Sunny 37 2.8 14 -10 39 39 NNW 8 13 30.16 1021 10 16 0.00 0.00
12:53 pm 12:53 Sunny 40 4.4 15 -9.4 36 36 VRB 6 9 30.13 1020 10 16 0.00 0.00
1:53 pm 13:53 Sunny 41 5 14 -10 33 33 Calm 30.11 1020 10 16 0.00 0.00
2:53 pm 14:53 Sunny 42 5.6 14 -10 32 32 W 5 7 30.09 1019 10 16 0.00 0.00
3:53 pm 15:53 Sunny 42 5.6 11 -11.7 28 28 E 3 6 30.09 1019 10 16 0.00 0.00
4:53 pm 16:53 Sunny 42 5.6 12 -11.1 29 29 Calm 30.07 1018 10 16 0.00 0.00
5:53 pm 17:53 Sunny 42 5.6 12 -11.1 29 29 Calm 30.07 1018 10 16 0.00 0.00
6:53 pm 18:53 Sunny 42 5.6 13 -10.6 30 30 Calm 30.08 1019 10 16 0.00 0.00
7:53 pm 19:53 Partly Cloudy 42 5.6 14 -10 32 32 NE 5 7 30.07 1018 10 16 0.00 0.00
8:53 pm 20:53 Cloudy 41 5 18 -7.8 39 39 NNE 3 6 30.06 1018 10 16 0.00 0.00
9:53 pm 21:53 Cloudy 41 5 17 -8.3 38 38 ENE 5 7 30.07 1018 10 16 0.00 0.00
10:53 pm 22:53 Cloudy 40 4.4 18 -7.8 41 41 E 8 13 30.06 1018 10 16 0.00 0.00
11:53 pm 23:53 Cloudy 40 4.4 19 -7.2 43 43 E 9 15 30.05 1018 10 16 0.00 0.00

Powered by AerisWeather